Epoch 2020 Feb. 1.0 TT = JDT 2458880.5
T 2020 Feb. 9.91815 TT Rudenko
q 3.6444226 (2000.0) P Q
n 0.00522590 Peri. 61.80397 +0.43753727 -0.89561493
a 32.8873473 Node 354.91850 -0.69737743 -0.28166292
e 0.8891847 Incl. 115.08491 +0.56764941 +0.34429623
P 189 H 15.5
From 70 observations 2018 Aug. 6-2021 May 9, mean residual 0".3.